TAP23SL KSFO-LPPT

Flight info

Callsign TAP23SL
Flight time N/A
Altitude 37000
Route TRUKN2 TIPRE Q126 GAROT DCT EKR J84 SNY DCT OBH DCT OVR DCT BDF/N0465F390 DCT FWA J64 RAV DCT JFK DCT DOVEY/M082F390 DCT 42N060W 43N050W 43N040W 4230N03000W 41N020W DCT ERPES/N0466F390 DCT LAZET
Aircraft A332/H-SDE3GHIJ2J3J5M1RVWXY/LB2D1

Departure

Time 2026-05-04 09:19
Airport San Francisco International Airport (KSFO)

Arrival

Time N/A
Airport Lisbon Humberto Delgado Airport (LPPT)
Time Latitude Longitude Altitude Speed Heading
2026-05-04 08:52 37.61162 -122.38951 26 ft 0 kts 298°
2026-05-04 09:04 37.61162 -122.38949 30 ft 2 kts 298°
2026-05-04 09:04 37.61154 -122.38931 31 ft 0 kts 297°
2026-05-04 09:04 37.61149 -122.38918 31 ft 2 kts 297°
2026-05-04 09:04 37.61142 -122.38900 31 ft 2 kts 296°
2026-05-04 09:05 37.61134 -122.38882 30 ft 2 kts 295°
2026-05-04 09:05 37.61127 -122.38863 30 ft 2 kts 283°
2026-05-04 09:05 37.61126 -122.38842 31 ft 2 kts 254°
2026-05-04 09:05 37.61133 -122.38825 31 ft 1 kts 219°
2026-05-04 09:06 37.61135 -122.38822 31 ft 0 kts 210°
2026-05-04 09:07 37.61026 -122.38865 28 ft 7 kts 154°
2026-05-04 09:08 37.60990 -122.38813 31 ft 9 kts 122°
2026-05-04 09:08 37.60959 -122.38743 26 ft 10 kts 116°
2026-05-04 09:08 37.60926 -122.38664 28 ft 11 kts 118°
2026-05-04 09:08 37.60890 -122.38575 31 ft 12 kts 112°
2026-05-04 09:09 37.60914 -122.38488 28 ft 11 kts 32°
2026-05-04 09:09 37.60981 -122.38432 29 ft 12 kts 36°
2026-05-04 09:09 37.61002 -122.38412 31 ft 12 kts 37°
2026-05-04 09:10 37.61060 -122.38365 28 ft 13 kts 28°
2026-05-04 09:11 37.61140 -122.38313 30 ft 13 kts 27°
2026-05-04 09:11 37.61188 -122.38282 30 ft 14 kts 27°
2026-05-04 09:11 37.61219 -122.38261 28 ft 14 kts 28°
2026-05-04 09:11 37.61307 -122.38201 29 ft 15 kts 26°
2026-05-04 09:12 37.61400 -122.38141 30 ft 15 kts 28°
2026-05-04 09:12 37.61497 -122.38076 31 ft 16 kts 28°
2026-05-04 09:14 37.61630 -122.37424 27 ft 12 kts 99°
2026-05-04 09:14 37.61619 -122.37318 29 ft 13 kts 97°
2026-05-04 09:14 37.61595 -122.37216 29 ft 12 kts 114°
2026-05-04 09:14 37.61557 -122.37124 28 ft 12 kts 121°
2026-05-04 09:15 37.61518 -122.37035 31 ft 11 kts 117°
2026-05-04 09:15 37.61481 -122.36950 31 ft 11 kts 120°
2026-05-04 09:15 37.61410 -122.36844 28 ft 12 kts 134°
2026-05-04 09:15 37.61356 -122.36756 30 ft 14 kts 120°
2026-05-04 09:17 37.61167 -122.35872 29 ft 11 kts 354°
2026-05-04 09:18 37.61218 -122.35950 31 ft 17 kts 298°
2026-05-04 09:18 37.61362 -122.36295 28 ft 74 kts 297°
2026-05-04 09:18 37.61689 -122.37074 29 ft 126 kts 297°
2026-05-04 09:18 37.62172 -122.38224 32 ft 169 kts 297°
2026-05-04 09:19 37.62732 -122.39568 490 ft 175 kts 297°
2026-05-04 09:19 37.63312 -122.40862 1203 ft 172 kts 308°
2026-05-04 09:19 37.64370 -122.41497 1778 ft 179 kts 358°
2026-05-04 09:19 37.65570 -122.40867 1995 ft 203 kts 44°
2026-05-04 09:20 37.66302 -122.39268 2128 ft 222 kts 68°
2026-05-04 09:20 37.66848 -122.37349 2263 ft 243 kts 70°
2026-05-04 09:20 37.67437 -122.35262 2531 ft 259 kts 69°
2026-05-04 09:20 37.68082 -122.33095 2987 ft 267 kts 69°
2026-05-04 09:21 37.68760 -122.30899 3585 ft 270 kts 69°
2026-05-04 09:21 37.69453 -122.28696 4264 ft 270 kts 70°
2026-05-04 09:21 37.70142 -122.26527 4921 ft 270 kts 70°
2026-05-04 09:21 37.70846 -122.24322 5594 ft 270 kts 71°
2026-05-04 09:22 37.71559 -122.22127 6294 ft 271 kts 68°
2026-05-04 09:22 37.72481 -122.20039 6958 ft 274 kts 61°
2026-05-04 09:22 37.73518 -122.18010 7592 ft 276 kts 59°
2026-05-04 09:22 37.74579 -122.15982 8244 ft 278 kts 59°
2026-05-04 09:23 37.75647 -122.13938 8919 ft 279 kts 58°
2026-05-04 09:23 37.76705 -122.11907 9573 ft 281 kts 58°
2026-05-04 09:23 37.77779 -122.09840 10186 ft 283 kts 58°
2026-05-04 09:23 37.78881 -122.07710 10454 ft 298 kts 58°
2026-05-04 09:25 37.87106 -121.89190 12564 ft 374 kts 65°
2026-05-04 09:25 37.88273 -121.86241 13123 ft 376 kts 65°
2026-05-04 09:26 37.89446 -121.83277 13651 ft 378 kts 65°
2026-05-04 09:26 37.90627 -121.80288 14132 ft 381 kts 65°
2026-05-04 09:26 37.91816 -121.77281 14566 ft 383 kts 65°
2026-05-04 09:26 37.93013 -121.74250 15001 ft 386 kts 65°
2026-05-04 09:27 37.94218 -121.71196 15453 ft 389 kts 65°
2026-05-04 09:27 37.95430 -121.68121 15873 ft 391 kts 65°
2026-05-04 09:27 37.96647 -121.65029 16303 ft 394 kts 65°
2026-05-04 09:27 37.97857 -121.61954 16713 ft 396 kts 65°
2026-05-04 09:28 37.99088 -121.58821 17149 ft 399 kts 65°
2026-05-04 09:28 38.00329 -121.55659 17584 ft 401 kts 65°
2026-05-04 09:28 38.01576 -121.52478 17991 ft 404 kts 65°
2026-05-04 09:28 38.02828 -121.49284 18409 ft 406 kts 65°
2026-05-04 09:29 38.04084 -121.46075 18810 ft 407 kts 65°
2026-05-04 09:29 38.05342 -121.42858 19211 ft 407 kts 65°
2026-05-04 09:29 38.06600 -121.39637 19631 ft 408 kts 65°
2026-05-04 09:29 38.07841 -121.36454 20023 ft 409 kts 65°
2026-05-04 09:30 38.09101 -121.33220 20406 ft 409 kts 65°
2026-05-04 09:30 38.10365 -121.29974 20800 ft 410 kts 65°
2026-05-04 09:30 38.11629 -121.26725 21178 ft 411 kts 65°
2026-05-04 09:30 38.12896 -121.23463 21530 ft 412 kts 65°
2026-05-04 09:31 38.14167 -121.20187 21862 ft 414 kts 65°
2026-05-04 09:31 38.15442 -121.16898 22220 ft 415 kts 65°
2026-05-04 09:31 38.16719 -121.13602 22590 ft 416 kts 65°
2026-05-04 09:31 38.17997 -121.10298 22946 ft 417 kts 65°
2026-05-04 09:32 38.19274 -121.06977 23302 ft 418 kts 66°
2026-05-04 09:32 38.20361 -121.03606 23630 ft 418 kts 73°
2026-05-04 09:34 38.24280 -120.77672 25208 ft 435 kts 81°
2026-05-04 09:34 38.24799 -120.73924 25433 ft 437 kts 81°
2026-05-04 09:34 38.25332 -120.70107 25674 ft 439 kts 81°
2026-05-04 09:34 38.25868 -120.66278 25918 ft 441 kts 81°
2026-05-04 09:35 38.26408 -120.62432 26127 ft 443 kts 81°
2026-05-04 09:35 38.26949 -120.58559 26355 ft 445 kts 81°
2026-05-04 09:35 38.27491 -120.54673 26561 ft 447 kts 81°
2026-05-04 09:35 38.28033 -120.50769 26787 ft 449 kts 81°
2026-05-04 09:37 38.31853 -120.22958 28111 ft 464 kts 81°
2026-05-04 09:37 38.32404 -120.18908 28292 ft 466 kts 81°
2026-05-04 09:38 38.32956 -120.14833 28484 ft 467 kts 81°
2026-05-04 09:38 38.33501 -120.10803 28654 ft 469 kts 81°
2026-05-04 09:38 38.34055 -120.06692 28764 ft 473 kts 81°
2026-05-04 09:38 38.34610 -120.02561 28988 ft 473 kts 81°
2026-05-04 09:39 38.35164 -119.98433 29291 ft 473 kts 81°
2026-05-04 09:39 38.35715 -119.94308 29571 ft 473 kts 82°
2026-05-04 09:39 38.36826 -119.85939 29631 ft 483 kts 82°
2026-05-04 09:40 38.37387 -119.81708 29809 ft 485 kts 82°
2026-05-04 09:40 38.37943 -119.77513 29875 ft 488 kts 82°
2026-05-04 09:40 38.38507 -119.73244 30110 ft 489 kts 82°
2026-05-04 09:40 38.39070 -119.68969 30275 ft 489 kts 82°
2026-05-04 09:41 38.39631 -119.64687 30433 ft 491 kts 82°
2026-05-04 09:42 38.43561 -119.34330 31452 ft 502 kts 83°
2026-05-04 09:43 38.44124 -119.29930 31609 ft 503 kts 83°
2026-05-04 09:43 38.44687 -119.25516 31761 ft 504 kts 83°
2026-05-04 09:43 38.45815 -119.16629 31902 ft 510 kts 83°
2026-05-04 09:44 38.46380 -119.12161 32087 ft 511 kts 83°
2026-05-04 09:44 38.46944 -119.07680 32243 ft 512 kts 83°
2026-05-04 09:44 38.47508 -119.03192 32408 ft 513 kts 83°
2026-05-04 09:46 38.51433 -118.71525 33421 ft 521 kts 83°
2026-05-04 09:46 38.51992 -118.66949 33539 ft 522 kts 84°
2026-05-04 09:46 38.52542 -118.62438 33703 ft 522 kts 84°
2026-05-04 09:47 38.53099 -118.57853 33859 ft 523 kts 84°
2026-05-04 09:47 38.53655 -118.53261 33920 ft 525 kts 84°
2026-05-04 09:49 38.57567 -118.20524 34537 ft 534 kts 84°
2026-05-04 09:49 38.58120 -118.15834 34677 ft 534 kts 84°
2026-05-04 09:49 38.58671 -118.11145 34826 ft 533 kts 84°
2026-05-04 09:51 38.61932 -117.83053 35553 ft 533 kts 84°
2026-05-04 09:51 38.62470 -117.78360 35669 ft 533 kts 84°
2026-05-04 09:51 38.63006 -117.73673 35785 ft 533 kts 84°
2026-05-04 09:51 38.63540 -117.68981 35891 ft 533 kts 84°
2026-05-04 09:52 38.64072 -117.64286 36008 ft 533 kts 84°
2026-05-04 09:52 38.64602 -117.59596 36130 ft 533 kts 85°
2026-05-04 09:52 38.65130 -117.54901 36249 ft 533 kts 85°
2026-05-04 09:53 38.66181 -117.45518 36445 ft 533 kts 85°
2026-05-04 09:53 38.67218 -117.36174 36628 ft 534 kts 85°
2026-05-04 09:53 38.67738 -117.31471 36742 ft 534 kts 85°
2026-05-04 09:54 38.68345 -117.26782 36832 ft 535 kts 82°
2026-05-04 09:54 38.69907 -117.17446 36864 ft 537 kts 79°
2026-05-04 09:55 38.71581 -117.08125 36873 ft 538 kts 79°
2026-05-04 09:55 38.73205 -116.98838 36874 ft 538 kts 80°
2026-05-04 09:56 38.74794 -116.89477 36878 ft 540 kts 80°
2026-05-04 09:56 38.76376 -116.80034 36880 ft 544 kts 80°
2026-05-04 09:57 38.77964 -116.70517 36876 ft 547 kts 81°
2026-05-04 09:57 38.79537 -116.61052 36882 ft 546 kts 81°
2026-05-04 09:58 38.81111 -116.51529 36880 ft 546 kts 81°
2026-05-04 09:58 38.82671 -116.42011 36869 ft 546 kts 81°
2026-05-04 10:00 38.88862 -116.03910 36855 ft 549 kts 81°
2026-05-04 10:04 38.99426 -115.36621 36800 ft 549 kts 81°
2026-05-04 10:04 39.00912 -115.26984 36792 ft 550 kts 81°
2026-05-04 10:05 39.02393 -115.17338 36791 ft 549 kts 81°
2026-05-04 10:05 39.03851 -115.07766 36817 ft 549 kts 81°
2026-05-04 10:06 39.05309 -114.98117 36847 ft 550 kts 81°
2026-05-04 10:06 39.06758 -114.88462 36871 ft 550 kts 81°
2026-05-04 10:08 39.11762 -114.54708 36833 ft 549 kts 81°
2026-05-04 10:08 39.13175 -114.45035 36792 ft 549 kts 81°
2026-05-04 10:09 39.14580 -114.35361 36786 ft 550 kts 81°
2026-05-04 10:09 39.15968 -114.25747 36765 ft 550 kts 81°
2026-05-04 10:10 39.17359 -114.16019 36778 ft 554 kts 81°
2026-05-04 10:10 39.18764 -114.06215 36789 ft 558 kts 81°
2026-05-04 10:11 39.20159 -113.96371 36783 ft 558 kts 81°
2026-05-04 10:11 39.21533 -113.86607 36786 ft 557 kts 81°
2026-05-04 10:12 39.22908 -113.76779 36781 ft 557 kts 81°
2026-05-04 10:12 39.24277 -113.66936 36778 ft 557 kts 82°
2026-05-04 10:13 39.25626 -113.57079 36794 ft 559 kts 81°
2026-05-04 10:13 39.26987 -113.47207 36799 ft 558 kts 81°
2026-05-04 10:14 39.28329 -113.37409 36799 ft 558 kts 81°
2026-05-04 10:16 39.34481 -112.98213 36776 ft 558 kts 78°
2026-05-04 10:16 39.36122 -112.88413 36776 ft 558 kts 78°
2026-05-04 10:17 39.37740 -112.78610 36860 ft 558 kts 79°
2026-05-04 10:19 39.44103 -112.39445 36784 ft 557 kts 78°
2026-05-04 10:19 39.45667 -112.29688 36788 ft 558 kts 78°
2026-05-04 10:20 39.47236 -112.19851 36789 ft 558 kts 78°
2026-05-04 10:20 39.48793 -112.10031 36793 ft 557 kts 78°
2026-05-04 10:21 39.50339 -112.00209 36807 ft 557 kts 78°
2026-05-04 10:21 39.51620 -111.92030 36808 ft 558 kts 78°
2026-05-04 10:22 39.54169 -111.75659 36818 ft 558 kts 78°
2026-05-04 10:23 39.55685 -111.65832 36819 ft 555 kts 79°
2026-05-04 10:25 39.61393 -111.28303 36823 ft 555 kts 79°
2026-05-04 10:25 39.63107 -111.16894 36848 ft 554 kts 79°
2026-05-04 10:26 39.64572 -111.07072 36883 ft 555 kts 79°
2026-05-04 10:26 39.65781 -110.98909 36928 ft 553 kts 79°
2026-05-04 10:27 39.67222 -110.89105 36972 ft 553 kts 79°
2026-05-04 10:27 39.68891 -110.77694 36990 ft 553 kts 79°
2026-05-04 10:28 39.70312 -110.67885 36967 ft 552 kts 79°
2026-05-04 10:28 39.71492 -110.59735 36817 ft 553 kts 79°
2026-05-04 10:29 39.72905 -110.49922 36811 ft 553 kts 79°
2026-05-04 10:29 39.74536 -110.38512 36816 ft 552 kts 79°
2026-05-04 10:30 39.75702 -110.30298 36804 ft 552 kts 79°
2026-05-04 10:30 39.77072 -110.20555 36803 ft 551 kts 79°
2026-05-04 10:31 39.78441 -110.10783 36807 ft 551 kts 79°
2026-05-04 10:32 39.83193 -109.76354 36783 ft 557 kts 79°
2026-05-04 10:33 39.84541 -109.66448 36781 ft 556 kts 79°
2026-05-04 10:33 39.85880 -109.56531 36781 ft 556 kts 79°
2026-05-04 10:34 39.87203 -109.46679 36780 ft 556 kts 79°
2026-05-04 10:34 39.88529 -109.36754 36780 ft 556 kts 79°
2026-05-04 10:35 39.89839 -109.26848 36779 ft 555 kts 79°
2026-05-04 10:35 39.91141 -109.16941 36779 ft 555 kts 79°
2026-05-04 10:36 39.92427 -109.07100 36786 ft 554 kts 79°
2026-05-04 10:36 39.93708 -108.97217 36801 ft 553 kts 79°
2026-05-04 10:37 39.94981 -108.87336 36803 ft 553 kts 79°
2026-05-04 10:37 39.96246 -108.77458 36816 ft 552 kts 79°
2026-05-04 10:39 40.00583 -108.43031 36832 ft 551 kts 79°
2026-05-04 10:40 40.01800 -108.33213 36848 ft 553 kts 79°
2026-05-04 10:40 40.03021 -108.23292 36901 ft 554 kts 79°
2026-05-04 10:41 40.04233 -108.13369 36956 ft 553 kts 80°
2026-05-04 10:41 40.05433 -108.03453 36994 ft 553 kts 79°
2026-05-04 10:42 40.06675 -107.93610 37009 ft 553 kts 74°
2026-05-04 10:42 40.08722 -107.83955 36860 ft 551 kts 71°
2026-05-04 10:43 40.10928 -107.74370 36881 ft 551 kts 70°
2026-05-04 10:45 40.19719 -107.36192 36911 ft 549 kts 71°
2026-05-04 10:45 40.21887 -107.26644 36920 ft 546 kts 71°
2026-05-04 10:46 40.24024 -107.17199 36932 ft 545 kts 71°
2026-05-04 10:46 40.26168 -107.07681 36936 ft 545 kts 71°
2026-05-04 10:47 40.28305 -106.98152 36916 ft 545 kts 71°
2026-05-04 10:47 40.30426 -106.88650 36894 ft 543 kts 71°
2026-05-04 10:49 40.38746 -106.50955 36902 ft 536 kts 72°
2026-05-04 10:50 40.40802 -106.41544 36859 ft 537 kts 72°
2026-05-04 10:52 40.48914 -106.04001 36854 ft 534 kts 72°
2026-05-04 10:52 40.50922 -105.94606 36855 ft 533 kts 72°
2026-05-04 10:54 40.58805 -105.57261 36800 ft 530 kts 72°
2026-05-04 10:56 40.66548 -105.19911 36828 ft 528 kts 72°
2026-05-04 10:57 40.68462 -105.10576 36833 ft 528 kts 72°
2026-05-04 10:57 40.70356 -105.01304 36836 ft 528 kts 72°
2026-05-04 10:58 40.72256 -104.91956 36802 ft 528 kts 72°
2026-05-04 10:58 40.74143 -104.82622 36801 ft 526 kts 72°
2026-05-04 10:59 40.76015 -104.73325 36809 ft 525 kts 72°
2026-05-04 10:59 40.77870 -104.64073 36809 ft 525 kts 72°
2026-05-04 11:00 40.79729 -104.54755 36805 ft 525 kts 72°
2026-05-04 11:02 40.87081 -104.17480 36847 ft 525 kts 72°
2026-05-04 11:05 41.00446 -103.47870 36821 ft 518 kts 73°
2026-05-04 11:06 41.02187 -103.38617 36797 ft 518 kts 73°
2026-05-04 11:06 41.03920 -103.29370 36780 ft 518 kts 73°
2026-05-04 11:10 41.12411 -102.63752 36779 ft 518 kts 82°
2026-05-04 11:12 41.15285 -102.25839 36799 ft 516 kts 82°
2026-05-04 11:12 41.15985 -102.16360 36807 ft 516 kts 82°
2026-05-04 11:13 41.16677 -102.06883 36812 ft 516 kts 82°
2026-05-04 11:13 41.17356 -101.97465 36815 ft 516 kts 82°
2026-05-04 11:14 41.17471 -101.95857 36817 ft 516 kts 82°
2026-05-04 11:16 41.20650 -101.50161 36798 ft 514 kts 82°
2026-05-04 11:16 41.21286 -101.40702 36786 ft 514 kts 83°
2026-05-04 11:17 41.21909 -101.31309 36777 ft 514 kts 83°
2026-05-04 11:19 41.24345 -100.93396 36793 ft 517 kts 83°
2026-05-04 11:19 41.24937 -100.83868 36799 ft 517 kts 83°
2026-05-04 11:20 41.25521 -100.74337 36789 ft 517 kts 83°
2026-05-04 11:20 41.26098 -100.64809 36799 ft 517 kts 83°
2026-05-04 11:22 41.28309 -100.26944 36769 ft 514 kts 83°
2026-05-04 11:23 41.28843 -100.17471 36783 ft 514 kts 84°
2026-05-04 11:25 41.30638 -99.84520 36762 ft 511 kts 84°
2026-05-04 11:25 41.31134 -99.75097 36760 ft 510 kts 84°
2026-05-04 11:27 41.33262 -99.32857 36741 ft 509 kts 84°
2026-05-04 11:28 41.33714 -99.23463 36741 ft 508 kts 84°
2026-05-04 11:28 41.34155 -99.14135 36741 ft 509 kts 84°
2026-05-04 11:29 41.34592 -99.04750 36742 ft 508 kts 84°
2026-05-04 11:29 41.35020 -98.95368 36744 ft 507 kts 84°
2026-05-04 11:33 41.37204 -98.29991 36737 ft 507 kts 93°
2026-05-04 11:33 41.36607 -98.20655 36738 ft 506 kts 94°
2026-05-04 11:34 41.35936 -98.11325 36735 ft 506 kts 94°
2026-05-04 11:34 41.35264 -98.02059 36735 ft 506 kts 94°
2026-05-04 11:35 41.34592 -97.92738 36739 ft 506 kts 94°
2026-05-04 11:35 41.33918 -97.83420 36733 ft 506 kts 94°
2026-05-04 11:36 41.33242 -97.74175 36733 ft 505 kts 95°
2026-05-04 11:36 41.32554 -97.64864 36731 ft 506 kts 95°
2026-05-04 11:37 41.31859 -97.55563 36726 ft 505 kts 95°
2026-05-04 11:37 41.31156 -97.46266 36729 ft 505 kts 95°
2026-05-04 11:38 41.30451 -97.37036 36733 ft 505 kts 95°
2026-05-04 11:38 41.29734 -97.27749 36733 ft 505 kts 95°
2026-05-04 11:39 41.29009 -97.18467 36732 ft 505 kts 95°
2026-05-04 11:41 41.26418 -96.86035 36709 ft 505 kts 95°
2026-05-04 11:41 41.25660 -96.76762 36712 ft 504 kts 95°
2026-05-04 11:42 41.24895 -96.67500 36711 ft 504 kts 95°
2026-05-04 11:42 41.24129 -96.58311 36712 ft 504 kts 95°
2026-05-04 11:43 41.23349 -96.49053 36703 ft 504 kts 95°
2026-05-04 11:43 41.22564 -96.39811 36708 ft 504 kts 96°
2026-05-04 11:44 41.21770 -96.30567 36715 ft 503 kts 96°
2026-05-04 11:44 41.20976 -96.21395 36721 ft 503 kts 96°
2026-05-04 11:45 41.20168 -96.12166 36720 ft 503 kts 96°
2026-05-04 11:45 41.19353 -96.02931 36722 ft 503 kts 96°
2026-05-04 11:46 41.18531 -95.93711 36682 ft 503 kts 96°
2026-05-04 11:46 41.17707 -95.84551 36683 ft 503 kts 96°
2026-05-04 11:47 41.16909 -95.75331 36689 ft 503 kts 92°
2026-05-04 11:47 41.16896 -95.66063 36694 ft 502 kts 87°
2026-05-04 11:48 41.17099 -95.56807 36693 ft 502 kts 86°
2026-05-04 11:48 41.17338 -95.47615 36695 ft 502 kts 86°
2026-05-04 11:49 41.17564 -95.38353 36696 ft 502 kts 87°
2026-05-04 11:49 41.17771 -95.29089 36704 ft 502 kts 87°
2026-05-04 11:50 41.17966 -95.19823 36693 ft 502 kts 87°
2026-05-04 11:50 41.18153 -95.10610 36701 ft 503 kts 87°
2026-05-04 11:51 41.18334 -95.01338 36703 ft 503 kts 87°
2026-05-04 11:51 41.18507 -94.92063 36707 ft 503 kts 87°
2026-05-04 11:52 41.18673 -94.82784 36704 ft 503 kts 87°
2026-05-04 11:52 41.18831 -94.73564 36697 ft 503 kts 87°
2026-05-04 11:53 41.18983 -94.64282 36702 ft 503 kts 87°
2026-05-04 11:53 41.19127 -94.55002 36703 ft 503 kts 87°
2026-05-04 11:55 41.19629 -94.17872 36714 ft 504 kts 88°
2026-05-04 11:56 41.19736 -94.08573 36702 ft 504 kts 88°
2026-05-04 11:56 41.19835 -93.99331 36702 ft 504 kts 88°
2026-05-04 11:57 41.19927 -93.90025 36699 ft 504 kts 88°
2026-05-04 11:57 41.20012 -93.80715 36700 ft 504 kts 88°
2026-05-04 11:58 41.20089 -93.71409 36700 ft 504 kts 88°
2026-05-04 11:58 41.20158 -93.62156 36698 ft 505 kts 88°
2026-05-04 11:59 41.20221 -93.52839 36696 ft 505 kts 88°
2026-05-04 11:59 41.20275 -93.43525 36702 ft 505 kts 88°
2026-05-04 12:00 41.20322 -93.34207 36699 ft 505 kts 88°
2026-05-04 12:00 41.20362 -93.24951 36707 ft 505 kts 88°
2026-05-04 12:01 41.20394 -93.15639 36708 ft 505 kts 88°
2026-05-04 12:02 41.20448 -92.83079 36712 ft 505 kts 89°
2026-05-04 12:03 41.20447 -92.73757 36716 ft 505 kts 89°
2026-05-04 12:03 41.20438 -92.64434 36723 ft 505 kts 89°
2026-05-04 12:04 41.20422 -92.55170 36721 ft 505 kts 89°
2026-05-04 12:04 41.20398 -92.45840 36721 ft 505 kts 89°
2026-05-04 12:05 41.20366 -92.36509 36721 ft 505 kts 89°
2026-05-04 12:05 41.20327 -92.27183 36726 ft 505 kts 89°
2026-05-04 12:06 41.20281 -92.17917 36710 ft 505 kts 89°
2026-05-04 12:06 41.20228 -92.08586 36713 ft 505 kts 89°
2026-05-04 12:07 41.20166 -91.99260 36714 ft 505 kts 89°
2026-05-04 12:07 41.20096 -91.89934 36720 ft 505 kts 89°
2026-05-04 12:08 41.20019 -91.80604 36720 ft 506 kts 89°
2026-05-04 12:08 41.19936 -91.71331 36721 ft 506 kts 89°
2026-05-04 12:09 41.19844 -91.61993 36720 ft 506 kts 89°
2026-05-04 12:09 41.19745 -91.52660 36725 ft 506 kts 89°
2026-05-04 12:10 41.19638 -91.43324 36719 ft 506 kts 89°
2026-05-04 12:10 41.19524 -91.34042 36735 ft 506 kts 90°
2026-05-04 12:11 41.19402 -91.24694 36739 ft 506 kts 90°
2026-05-04 12:11 41.19273 -91.15356 36737 ft 506 kts 90°
2026-05-04 12:12 41.19136 -91.06008 36741 ft 506 kts 90°
2026-05-04 12:12 41.18992 -90.96731 36740 ft 506 kts 90°
2026-05-04 12:14 41.18338 -90.59348 36727 ft 507 kts 90°
2026-05-04 12:15 41.18158 -90.50064 36754 ft 507 kts 90°
2026-05-04 12:15 41.17968 -90.40718 36745 ft 507 kts 90°
2026-05-04 12:16 41.17770 -90.31369 36760 ft 506 kts 90°
2026-05-04 12:16 41.17565 -90.22035 36741 ft 506 kts 90°
2026-05-04 12:17 41.17354 -90.12762 36756 ft 506 kts 90°
2026-05-04 12:17 41.17134 -90.03424 36743 ft 506 kts 90°
2026-05-04 12:18 41.16907 -89.94092 36748 ft 506 kts 90°
2026-05-04 12:18 41.16672 -89.84766 36745 ft 506 kts 90°
2026-05-04 12:19 41.16431 -89.75508 36748 ft 506 kts 90°
2026-05-04 12:19 41.16182 -89.66184 36751 ft 506 kts 90°
2026-05-04 12:20 41.15930 -89.56859 36753 ft 506 kts 90°
2026-05-04 12:20 41.15713 -89.47531 36751 ft 506 kts 90°
2026-05-04 12:21 41.15504 -89.38275 36754 ft 506 kts 90°
2026-05-04 12:21 41.15284 -89.28952 36755 ft 506 kts 90°
2026-05-04 12:22 41.15052 -89.19627 36756 ft 506 kts 90°
2026-05-04 12:22 41.14812 -89.10303 36755 ft 506 kts 90°
2026-05-04 12:23 41.14564 -89.00979 36751 ft 506 kts 90°
2026-05-04 12:23 41.14311 -88.91718 36761 ft 506 kts 90°
2026-05-04 12:24 41.14048 -88.82399 36771 ft 506 kts 90°
2026-05-04 12:24 41.13778 -88.73078 36773 ft 505 kts 90°
2026-05-04 12:25 41.13500 -88.63764 36775 ft 505 kts 91°
2026-05-04 12:25 41.13217 -88.54510 36775 ft 505 kts 91°
2026-05-04 12:26 41.12925 -88.45196 36780 ft 505 kts 91°
2026-05-04 12:26 41.12625 -88.35896 36761 ft 505 kts 91°
2026-05-04 12:27 41.12318 -88.26593 36758 ft 505 kts 91°
2026-05-04 12:27 41.12006 -88.17363 36755 ft 505 kts 91°
2026-05-04 12:28 41.11684 -88.08061 36792 ft 505 kts 91°
2026-05-04 12:28 41.11355 -87.98769 36789 ft 505 kts 91°
2026-05-04 12:29 41.11017 -87.89465 36795 ft 505 kts 91°
2026-05-04 12:29 41.10673 -87.80161 36795 ft 505 kts 91°
2026-05-04 12:30 41.10323 -87.70919 36800 ft 505 kts 91°
2026-05-04 12:30 41.09963 -87.61616 36784 ft 505 kts 91°
2026-05-04 12:31 41.09596 -87.52321 36778 ft 505 kts 91°
2026-05-04 12:31 41.09222 -87.43030 36773 ft 505 kts 91°
2026-05-04 12:32 41.08650 -87.29155 36771 ft 505 kts 91°
2026-05-04 12:33 41.08256 -87.19857 36780 ft 505 kts 91°
2026-05-04 12:33 41.07856 -87.10575 36807 ft 505 kts 91°
2026-05-04 12:34 41.07449 -87.01292 36804 ft 505 kts 91°
2026-05-04 12:34 41.07037 -86.92075 36805 ft 505 kts 91°
2026-05-04 12:35 41.06614 -86.82783 36790 ft 505 kts 91°
2026-05-04 12:35 41.06184 -86.73495 36790 ft 505 kts 91°
2026-05-04 12:36 41.05746 -86.64207 36790 ft 505 kts 91°
2026-05-04 12:36 41.05304 -86.54984 36798 ft 505 kts 91°
2026-05-04 12:37 41.04851 -86.45698 36795 ft 505 kts 92°
2026-05-04 12:37 41.04391 -86.36410 36796 ft 505 kts 92°
2026-05-04 12:38 41.03923 -86.27116 36794 ft 506 kts 92°
2026-05-04 12:38 41.03450 -86.17887 36821 ft 506 kts 92°
2026-05-04 12:39 41.02968 -86.08599 36813 ft 506 kts 92°
2026-05-04 12:39 41.02477 -85.99299 36808 ft 506 kts 92°
2026-05-04 12:40 41.01978 -85.89998 36805 ft 506 kts 92°
2026-05-04 12:40 41.01475 -85.80762 36807 ft 506 kts 92°
2026-05-04 12:41 41.00962 -85.71466 36818 ft 506 kts 92°
2026-05-04 12:41 41.00441 -85.62172 36823 ft 506 kts 92°
2026-05-04 12:42 40.99913 -85.52882 36828 ft 506 kts 92°
2026-05-04 12:42 40.99381 -85.43650 36828 ft 506 kts 92°
2026-05-04 12:43 40.98837 -85.34356 36830 ft 507 kts 92°
2026-05-04 12:43 40.98286 -85.25052 36832 ft 507 kts 92°
2026-05-04 12:44 40.97806 -85.15753 36832 ft 506 kts 90°
2026-05-04 12:44 40.97685 -85.06520 36831 ft 505 kts 88°
2026-05-04 12:45 40.97650 -84.97222 36830 ft 506 kts 88°
2026-05-04 12:45 40.97580 -84.87909 36829 ft 506 kts 88°
2026-05-04 12:46 40.97473 -84.78599 36830 ft 506 kts 88°
2026-05-04 12:46 40.97348 -84.69282 36831 ft 506 kts 88°
2026-05-04 12:47 40.97216 -84.60032 36830 ft 507 kts 88°
2026-05-04 12:47 40.97077 -84.50708 36831 ft 507 kts 88°
2026-05-04 12:48 40.96932 -84.41387 36830 ft 507 kts 88°
2026-05-04 12:48 40.96779 -84.32065 36836 ft 507 kts 88°
2026-05-04 12:49 40.96620 -84.22802 36842 ft 507 kts 89°
2026-05-04 12:49 40.96451 -84.13469 36846 ft 508 kts 89°
2026-05-04 12:50 40.96275 -84.04130 36849 ft 508 kts 89°
2026-05-04 12:50 40.96090 -83.94793 36848 ft 508 kts 89°
2026-05-04 12:51 40.95900 -83.85519 36851 ft 508 kts 89°
2026-05-04 12:51 40.95700 -83.76175 36839 ft 508 kts 89°
2026-05-04 12:52 40.95493 -83.66825 36841 ft 508 kts 89°
2026-05-04 12:52 40.95279 -83.57482 36840 ft 508 kts 89°
2026-05-04 12:53 40.95058 -83.48204 36829 ft 508 kts 89°
2026-05-04 12:53 40.94828 -83.38852 36834 ft 509 kts 89°
2026-05-04 12:54 40.94591 -83.29501 36859 ft 509 kts 89°
2026-05-04 12:54 40.94346 -83.20159 36861 ft 509 kts 89°
2026-05-04 12:55 40.94096 -83.10874 36869 ft 509 kts 89°
2026-05-04 12:55 40.93836 -83.01525 36868 ft 509 kts 89°
2026-05-04 12:56 40.93569 -82.92175 36872 ft 509 kts 89°
2026-05-04 12:56 40.93294 -82.82823 36869 ft 509 kts 89°
2026-05-04 12:57 40.93011 -82.73473 36878 ft 509 kts 89°
2026-05-04 12:57 40.92723 -82.64197 36881 ft 509 kts 89°
2026-05-04 12:58 40.92425 -82.54827 36888 ft 509 kts 89°
2026-05-04 12:58 40.92119 -82.45473 36872 ft 509 kts 89°
2026-05-04 12:59 40.91807 -82.36117 36871 ft 509 kts 90°
2026-05-04 12:59 40.91490 -82.26824 36879 ft 509 kts 90°
2026-05-04 13:00 40.91163 -82.17471 36880 ft 509 kts 90°
2026-05-04 13:00 40.90829 -82.08127 36894 ft 509 kts 90°
2026-05-04 13:01 40.90487 -81.98774 36895 ft 509 kts 90°
2026-05-04 13:01 40.90140 -81.89484 36898 ft 509 kts 90°
2026-05-04 13:02 40.89783 -81.80136 36885 ft 509 kts 90°
2026-05-04 13:02 40.89418 -81.70780 36891 ft 509 kts 90°
2026-05-04 13:03 40.89044 -81.61443 36890 ft 509 kts 90°
2026-05-04 13:03 40.88661 -81.52156 36905 ft 509 kts 90°
2026-05-04 13:04 40.88268 -81.42807 36906 ft 509 kts 90°
2026-05-04 13:04 40.87867 -81.33455 36906 ft 509 kts 90°
2026-05-04 13:05 40.87460 -81.24112 36903 ft 510 kts 90°
2026-05-04 13:05 40.87045 -81.14760 36905 ft 510 kts 91°
2026-05-04 13:06 40.86627 -81.05462 36914 ft 510 kts 91°
2026-05-04 13:06 40.86199 -80.96101 36915 ft 510 kts 91°
2026-05-04 13:07 40.85763 -80.86742 36929 ft 511 kts 91°
2026-05-04 13:07 40.85320 -80.77371 36926 ft 511 kts 91°
2026-05-04 13:08 40.84872 -80.68066 36931 ft 511 kts 91°
2026-05-04 13:08 40.84412 -80.58689 36931 ft 511 kts 91°
2026-05-04 13:09 40.83946 -80.49317 36933 ft 512 kts 91°
2026-05-04 13:09 40.83472 -80.39937 36940 ft 512 kts 91°
2026-05-04 13:10 40.82992 -80.30619 36940 ft 512 kts 91°
2026-05-04 13:10 40.82501 -80.21243 36938 ft 512 kts 92°
2026-05-04 13:11 40.81959 -80.11867 36941 ft 513 kts 92°
2026-05-04 13:11 40.81384 -80.02473 36941 ft 514 kts 92°
2026-05-04 13:12 40.80804 -79.93138 36941 ft 514 kts 92°
2026-05-04 13:12 40.80218 -79.83737 36940 ft 514 kts 92°
2026-05-04 13:13 40.79627 -79.74342 36947 ft 514 kts 92°
2026-05-04 13:13 40.79027 -79.64939 36943 ft 515 kts 93°
2026-05-04 13:14 40.78424 -79.55594 36945 ft 514 kts 93°
2026-05-04 13:14 40.77809 -79.46189 36948 ft 514 kts 93°
2026-05-04 13:15 40.77186 -79.36788 36946 ft 515 kts 93°
2026-05-04 13:15 40.76555 -79.27386 36949 ft 515 kts 93°
2026-05-04 13:16 40.75917 -79.17982 36955 ft 515 kts 93°
2026-05-04 13:16 40.75276 -79.08643 36945 ft 515 kts 93°
2026-05-04 13:17 40.74621 -78.99229 36952 ft 516 kts 93°
2026-05-04 13:17 40.73958 -78.89804 36949 ft 517 kts 94°
2026-05-04 13:18 40.73291 -78.80437 36951 ft 517 kts 94°
2026-05-04 13:18 40.72613 -78.71012 36942 ft 517 kts 94°
2026-05-04 13:19 40.71926 -78.61580 36946 ft 517 kts 94°
2026-05-04 13:19 40.71230 -78.52144 36960 ft 517 kts 94°
2026-05-04 13:20 40.70532 -78.42780 36955 ft 517 kts 94°
2026-05-04 13:20 40.69822 -78.33349 36951 ft 517 kts 94°
2026-05-04 13:21 40.69104 -78.23913 36964 ft 517 kts 94°
2026-05-04 13:21 40.68379 -78.14489 36961 ft 517 kts 94°
2026-05-04 13:22 40.67645 -78.05060 36962 ft 517 kts 94°
2026-05-04 13:22 40.66909 -77.95708 36981 ft 517 kts 94°
2026-05-04 13:23 40.66161 -77.86284 36975 ft 517 kts 95°
2026-05-04 13:23 40.65405 -77.76877 36982 ft 517 kts 95°
2026-05-04 13:24 40.64646 -77.67532 36987 ft 517 kts 95°
2026-05-04 13:24 40.63873 -77.58132 36971 ft 517 kts 95°
2026-05-04 13:25 40.62701 -77.44037 36980 ft 516 kts 95°
2026-05-04 13:25 40.61912 -77.34649 36985 ft 516 kts 95°
2026-05-04 13:26 40.61119 -77.25325 36987 ft 516 kts 95°
2026-05-04 13:26 40.60313 -77.15942 36989 ft 516 kts 95°
2026-05-04 13:27 40.59500 -77.06561 36992 ft 516 kts 95°
2026-05-04 13:27 40.58678 -76.97178 36995 ft 516 kts 96°
2026-05-04 13:28 40.57856 -76.87862 36994 ft 516 kts 96°
2026-05-04 13:28 40.57020 -76.78487 37000 ft 516 kts 96°
2026-05-04 13:29 40.56175 -76.69103 36996 ft 517 kts 96°
2026-05-04 13:29 40.55501 -76.59716 37001 ft 515 kts 88°
2026-05-04 13:30 40.55690 -76.50372 37010 ft 515 kts 86°
2026-05-04 13:30 40.56053 -76.40966 37002 ft 515 kts 85°
2026-05-04 13:31 40.56441 -76.31559 37000 ft 515 kts 85°
2026-05-04 13:31 40.56807 -76.22139 37003 ft 515 kts 85°
2026-05-04 13:32 40.57154 -76.12785 37015 ft 516 kts 86°
2026-05-04 13:32 40.57493 -76.03362 37018 ft 516 kts 86°
2026-05-04 13:33 40.57821 -75.93932 37015 ft 516 kts 86°
2026-05-04 13:33 40.58143 -75.84496 37013 ft 516 kts 86°
2026-05-04 13:34 40.58456 -75.75123 37011 ft 516 kts 86°
2026-05-04 13:34 40.58764 -75.65691 37016 ft 516 kts 86°
2026-05-04 13:35 40.59210 -75.51540 37017 ft 516 kts 86°
2026-05-04 13:36 40.59499 -75.42104 37013 ft 516 kts 87°
2026-05-04 13:36 40.59778 -75.32736 37027 ft 516 kts 87°
2026-05-04 13:37 40.60050 -75.23297 37012 ft 516 kts 87°
2026-05-04 13:37 40.60315 -75.13853 37012 ft 516 kts 87°
2026-05-04 13:38 40.60572 -75.04416 37002 ft 516 kts 88°
2026-05-04 13:38 40.60821 -74.95024 37006 ft 517 kts 88°
2026-05-04 13:39 40.61064 -74.85560 37008 ft 517 kts 88°
2026-05-04 13:39 40.61299 -74.76102 37008 ft 517 kts 88°
2026-05-04 13:40 40.61526 -74.66642 37008 ft 517 kts 88°
2026-05-04 13:40 40.61744 -74.57245 37010 ft 517 kts 88°
2026-05-04 13:41 40.61956 -74.47783 37007 ft 517 kts 88°
2026-05-04 13:41 40.62161 -74.38315 37016 ft 517 kts 88°
2026-05-04 13:42 40.62453 -74.24109 37018 ft 518 kts 88°
2026-05-04 13:42 40.62637 -74.14682 37017 ft 519 kts 88°
2026-05-04 13:43 40.62814 -74.05191 37036 ft 518 kts 89°
2026-05-04 13:43 40.62985 -73.95710 37036 ft 519 kts 89°
2026-05-04 13:44 40.63147 -73.86203 37035 ft 520 kts 89°
2026-05-04 13:44 40.63424 -73.76768 37040 ft 519 kts 83°
2026-05-04 13:45 40.64260 -73.67337 37035 ft 519 kts 82°
2026-05-04 13:45 40.65203 -73.57906 37025 ft 520 kts 82°
2026-05-04 13:46 40.66159 -73.48443 37029 ft 521 kts 82°
2026-05-04 13:46 40.67093 -73.39040 37026 ft 521 kts 82°
2026-05-04 13:47 40.68019 -73.29569 37025 ft 521 kts 83°
2026-05-04 13:47 40.68936 -73.20080 37024 ft 523 kts 83°
2026-05-04 13:48 40.69848 -73.10562 37012 ft 524 kts 83°
2026-05-04 13:48 40.70745 -73.01110 37021 ft 524 kts 83°
2026-05-04 13:49 40.71643 -72.91582 37030 ft 523 kts 83°
2026-05-04 13:49 40.72532 -72.82055 37027 ft 524 kts 83°
2026-05-04 13:50 40.73413 -72.72530 37034 ft 524 kts 83°
2026-05-04 13:50 40.74281 -72.63056 37038 ft 524 kts 83°
2026-05-04 13:51 40.75147 -72.53521 37036 ft 525 kts 84°
2026-05-04 13:51 40.76008 -72.43950 37034 ft 526 kts 84°
2026-05-04 13:52 40.77284 -72.29590 37029 ft 525 kts 84°
2026-05-04 13:53 40.78119 -72.20076 37021 ft 526 kts 84°
2026-05-04 13:53 40.78954 -72.10474 37055 ft 527 kts 84°
2026-05-04 13:54 40.80191 -71.96078 37022 ft 526 kts 84°
2026-05-04 13:55 40.81404 -71.81750 37020 ft 527 kts 85°
2026-05-04 13:55 40.82607 -71.67319 37021 ft 527 kts 85°
2026-05-04 13:56 40.83399 -71.57692 37022 ft 527 kts 85°
2026-05-04 13:57 40.84569 -71.43287 37023 ft 530 kts 85°
2026-05-04 13:58 40.86113 -71.23932 37040 ft 530 kts 85°
2026-05-04 13:58 40.87242 -71.09507 37028 ft 528 kts 85°
2026-05-04 13:59 40.87988 -70.99844 37023 ft 528 kts 85°
2026-05-04 14:00 40.88968 -70.86987 37014 ft 528 kts 86°
2026-05-04 14:00 40.90174 -70.70877 37023 ft 531 kts 86°
2026-05-04 14:01 40.90775 -70.62745 37022 ft 531 kts 86°
2026-05-04 14:02 40.91832 -70.48237 37025 ft 532 kts 86°
2026-05-04 14:02 40.92532 -70.38493 37030 ft 532 kts 86°
2026-05-04 14:03 40.93222 -70.28760 37024 ft 531 kts 86°
2026-05-04 14:03 40.93905 -70.19027 37010 ft 531 kts 86°
2026-05-04 14:04 40.94909 -70.04477 37017 ft 533 kts 86°
2026-05-04 14:04 40.95573 -69.94705 37018 ft 533 kts 86°
2026-05-04 14:05 40.96552 -69.80064 37020 ft 534 kts 87°
2026-05-04 14:06 40.97193 -69.70322 37021 ft 535 kts 87°
2026-05-04 14:06 40.97831 -69.60506 37020 ft 535 kts 87°
2026-05-04 14:07 40.98460 -69.50682 37007 ft 535 kts 87°
2026-05-04 14:07 40.99083 -69.40830 37009 ft 539 kts 87°
2026-05-04 14:08 40.99695 -69.31010 37023 ft 539 kts 87°
2026-05-04 14:08 41.00305 -69.21113 37022 ft 539 kts 87°
2026-05-04 14:09 41.01203 -69.06244 37024 ft 542 kts 87°
2026-05-04 14:10 41.02080 -68.91411 37027 ft 542 kts 88°
2026-05-04 14:10 41.02658 -68.81452 37041 ft 542 kts 88°
2026-05-04 14:11 41.03228 -68.71486 37027 ft 543 kts 88°
2026-05-04 14:11 41.04063 -68.56596 37024 ft 543 kts 88°
2026-05-04 14:12 41.04611 -68.46630 37021 ft 544 kts 88°
2026-05-04 14:13 41.05420 -68.31621 37023 ft 545 kts 88°
2026-05-04 14:13 41.05949 -68.21613 37015 ft 545 kts 88°
2026-05-04 14:14 41.06469 -68.11590 37019 ft 546 kts 89°
2026-05-04 14:14 41.07233 -67.96556 37038 ft 548 kts 88°
2026-05-04 14:15 41.08223 -67.76496 37022 ft 544 kts 88°
2026-05-04 14:16 41.08938 -67.61541 37014 ft 544 kts 88°
2026-05-04 14:17 41.09636 -67.46510 37020 ft 546 kts 89°
2026-05-04 14:18 41.10318 -67.31404 37021 ft 547 kts 89°
2026-05-04 14:19 41.11195 -67.11318 37014 ft 548 kts 89°
2026-05-04 14:19 41.11680 -67.01246 37021 ft 548 kts 84°
2026-05-04 14:20 41.13026 -66.91293 37022 ft 549 kts 80°
2026-05-04 14:20 41.14561 -66.81420 37022 ft 552 kts 79°
2026-05-04 14:21 41.16937 -66.66433 37019 ft 554 kts 79°
2026-05-04 14:21 41.18497 -66.56424 37025 ft 553 kts 79°
2026-05-04 14:22 41.20035 -66.46437 37021 ft 552 kts 79°
2026-05-04 14:22 41.21554 -66.36503 37018 ft 552 kts 79°
2026-05-04 14:23 41.23832 -66.21501 37011 ft 553 kts 80°
2026-05-04 14:24 41.25347 -66.11449 37019 ft 556 kts 80°
2026-05-04 14:24 41.26858 -66.01354 37034 ft 556 kts 80°
2026-05-04 14:25 41.28344 -65.91375 37001 ft 552 kts 80°
2026-05-04 14:25 41.30570 -65.76299 37016 ft 556 kts 80°
2026-05-04 14:26 41.32049 -65.66203 37017 ft 556 kts 80°
2026-05-04 14:26 41.33519 -65.56103 37019 ft 557 kts 80°
2026-05-04 14:27 41.34978 -65.46012 37026 ft 559 kts 80°
2026-05-04 14:27 41.36433 -65.35888 37022 ft 556 kts 80°
2026-05-04 14:28 41.37875 -65.25790 37007 ft 556 kts 81°
2026-05-04 14:28 41.39314 -65.15638 37017 ft 560 kts 81°
2026-05-04 14:29 41.42169 -64.95299 37010 ft 560 kts 81°
2026-05-04 14:30 41.43586 -64.85103 37018 ft 560 kts 81°
2026-05-04 14:31 41.45685 -64.69869 37017 ft 560 kts 81°
2026-05-04 14:32 41.48465 -64.49447 37018 ft 560 kts 81°
2026-05-04 14:32 41.49841 -64.39236 37018 ft 558 kts 81°
2026-05-04 14:33 41.51201 -64.29070 37021 ft 557 kts 81°
2026-05-04 14:33 41.52546 -64.18943 37025 ft 559 kts 81°
2026-05-04 14:34 41.53893 -64.08735 37013 ft 559 kts 81°
2026-05-04 14:34 41.55232 -63.98508 37018 ft 560 kts 81°
2026-05-04 14:35 41.56565 -63.88254 37022 ft 560 kts 81°
2026-05-04 14:35 41.57877 -63.78097 37018 ft 557 kts 81°
2026-05-04 14:36 41.59185 -63.67894 37014 ft 559 kts 82°
2026-05-04 14:36 41.60489 -63.57643 37016 ft 560 kts 82°
2026-05-04 14:37 41.61786 -63.47370 37011 ft 560 kts 82°
2026-05-04 14:37 41.63066 -63.37162 37011 ft 562 kts 82°
2026-05-04 14:38 41.64350 -63.26840 37000 ft 564 kts 82°
2026-05-04 14:38 41.65627 -63.16495 37005 ft 564 kts 82°
2026-05-04 14:39 41.66895 -63.06149 37001 ft 564 kts 82°
2026-05-04 14:39 41.68148 -62.95844 37012 ft 565 kts 82°
2026-05-04 14:40 41.70019 -62.80303 37002 ft 563 kts 82°
2026-05-04 14:40 41.71252 -62.69959 36999 ft 564 kts 82°
2026-05-04 14:41 41.72480 -62.59574 37000 ft 565 kts 82°
2026-05-04 14:42 41.74903 -62.38845 36997 ft 565 kts 82°
2026-05-04 14:42 41.76101 -62.28470 36980 ft 564 kts 83°
2026-05-04 14:43 41.77290 -62.18078 36995 ft 565 kts 83°
2026-05-04 14:43 41.78464 -62.07742 36984 ft 565 kts 83°
2026-05-04 14:44 41.79637 -61.97330 36980 ft 565 kts 83°
2026-05-04 14:44 41.80800 -61.86914 36971 ft 565 kts 83°
2026-05-04 14:45 41.81952 -61.76508 36990 ft 565 kts 83°
2026-05-04 14:45 41.83088 -61.66166 36975 ft 565 kts 83°
2026-05-04 14:46 41.84222 -61.55744 36974 ft 565 kts 83°
2026-05-04 14:46 41.85346 -61.45330 36952 ft 565 kts 83°
2026-05-04 14:47 41.86456 -61.34954 36971 ft 566 kts 83°
2026-05-04 14:47 41.87562 -61.24517 36961 ft 565 kts 83°
2026-05-04 14:48 41.88658 -61.14089 36961 ft 564 kts 83°
2026-05-04 14:48 41.89746 -61.03651 36965 ft 564 kts 84°
2026-05-04 14:49 41.90823 -60.93217 36963 ft 564 kts 84°
2026-05-04 14:49 41.91882 -60.82853 36958 ft 563 kts 83°
2026-05-04 14:50 41.92937 -60.72452 36960 ft 561 kts 84°
2026-05-04 14:50 41.93979 -60.62076 36953 ft 561 kts 84°
2026-05-04 14:51 41.95012 -60.51683 36957 ft 562 kts 84°
2026-05-04 14:51 41.96040 -60.41251 36956 ft 564 kts 84°
2026-05-04 14:52 41.97053 -60.30871 36947 ft 563 kts 84°
2026-05-04 14:52 41.98059 -60.20463 36953 ft 561 kts 84°
2026-05-04 14:53 41.99055 -60.10072 36940 ft 561 kts 84°
2026-05-04 14:53 42.00056 -59.99644 36945 ft 564 kts 83°
2026-05-04 14:54 42.01415 -59.89313 36949 ft 565 kts 80°
2026-05-04 14:54 42.02980 -59.78974 36947 ft 563 kts 79°
2026-05-04 14:55 42.04517 -59.68663 36943 ft 561 kts 80°
2026-05-04 14:55 42.06002 -59.58343 36946 ft 564 kts 81°
2026-05-04 14:56 42.07467 -59.47955 36938 ft 566 kts 81°
2026-05-04 14:56 42.08915 -59.37614 36949 ft 565 kts 81°
2026-05-04 14:57 42.10359 -59.27244 36940 ft 562 kts 81°
2026-05-04 14:57 42.11790 -59.16903 36902 ft 562 kts 81°
2026-05-04 14:58 42.13216 -59.06519 36938 ft 565 kts 81°
2026-05-04 14:58 42.14629 -58.96160 36941 ft 566 kts 81°
2026-05-04 14:59 42.16042 -58.85734 36938 ft 564 kts 81°
2026-05-04 15:00 42.18137 -58.70140 36936 ft 563 kts 81°
2026-05-04 15:00 42.19521 -58.59731 36936 ft 565 kts 82°
2026-05-04 15:01 42.21579 -58.44126 36938 ft 566 kts 82°
2026-05-04 15:01 42.22946 -58.33671 36935 ft 566 kts 82°
2026-05-04 15:02 42.24304 -58.23202 36938 ft 566 kts 82°
2026-05-04 15:02 42.25653 -58.12721 36938 ft 569 kts 82°
2026-05-04 15:03 42.26990 -58.02254 36954 ft 570 kts 82°
2026-05-04 15:03 42.28324 -57.91736 36940 ft 567 kts 82°
2026-05-04 15:04 42.29643 -57.81257 36938 ft 566 kts 82°
2026-05-04 15:04 42.30952 -57.70775 36904 ft 566 kts 83°
2026-05-04 15:05 42.32247 -57.60319 36933 ft 570 kts 83°
2026-05-04 15:05 42.33546 -57.49749 36939 ft 569 kts 83°
2026-05-04 15:06 42.34833 -57.39214 36936 ft 567 kts 83°
2026-05-04 15:07 42.36738 -57.23437 36891 ft 567 kts 83°
2026-05-04 15:07 42.37990 -57.12964 36937 ft 569 kts 83°
2026-05-04 15:08 42.39244 -57.02392 36934 ft 569 kts 83°
2026-05-04 15:08 42.40486 -56.91841 36936 ft 568 kts 83°
2026-05-04 15:09 42.41717 -56.81293 36929 ft 568 kts 84°
2026-05-04 15:09 42.42929 -56.70816 36925 ft 568 kts 84°
2026-05-04 15:10 42.44745 -56.54964 36936 ft 567 kts 84°
2026-05-04 15:11 42.46533 -56.39153 36921 ft 566 kts 84°
2026-05-04 15:11 42.47705 -56.28684 36916 ft 566 kts 84°
2026-05-04 15:12 42.48876 -56.18125 36917 ft 566 kts 84°
2026-05-04 15:12 42.50036 -56.07582 36922 ft 565 kts 85°
2026-05-04 15:13 42.51176 -55.97125 36920 ft 564 kts 85°
2026-05-04 15:13 42.52313 -55.86598 36920 ft 564 kts 85°
2026-05-04 15:14 42.53440 -55.76082 36916 ft 564 kts 85°
2026-05-04 15:14 42.54559 -55.65541 36927 ft 566 kts 85°
2026-05-04 15:15 42.55670 -55.54984 36921 ft 565 kts 85°
2026-05-04 15:15 42.56761 -55.44519 36914 ft 564 kts 85°
2026-05-04 15:16 42.58390 -55.28711 36921 ft 564 kts 85°
2026-05-04 15:17 42.59999 -55.12874 36921 ft 566 kts 86°
2026-05-04 15:17 42.61583 -54.97078 36920 ft 565 kts 86°
2026-05-04 15:18 42.62631 -54.86496 36925 ft 565 kts 86°
2026-05-04 15:19 42.64183 -54.70633 36924 ft 565 kts 86°
2026-05-04 15:19 42.65708 -54.54822 36925 ft 565 kts 86°
2026-05-04 15:20 42.66715 -54.44240 36922 ft 565 kts 87°
2026-05-04 15:20 42.67713 -54.33658 36932 ft 565 kts 87°
2026-05-04 15:21 42.68701 -54.23069 36909 ft 565 kts 87°
2026-05-04 15:22 42.70159 -54.07254 36932 ft 565 kts 87°
2026-05-04 15:22 42.71600 -53.91366 36933 ft 565 kts 88°
2026-05-04 15:23 42.72549 -53.80763 36930 ft 565 kts 88°
2026-05-04 15:23 42.73482 -53.70234 36937 ft 565 kts 88°
2026-05-04 15:24 42.75338 -53.48934 36937 ft 567 kts 88°
2026-05-04 15:25 42.76252 -53.38280 36939 ft 567 kts 88°
2026-05-04 15:26 42.77598 -53.22362 36913 ft 566 kts 88°
2026-05-04 15:26 42.78926 -53.06378 36939 ft 567 kts 89°
2026-05-04 15:27 42.80228 -52.90446 36948 ft 567 kts 89°
2026-05-04 15:28 42.81513 -52.74444 36885 ft 566 kts 89°
2026-05-04 15:29 42.82773 -52.58467 36941 ft 566 kts 89°
2026-05-04 15:30 42.85623 -52.21205 36925 ft 565 kts 90°
2026-05-04 15:31 42.86802 -52.05304 36946 ft 564 kts 90°
2026-05-04 15:32 42.88723 -51.78699 36949 ft 563 kts 90°
2026-05-04 15:34 42.90572 -51.52249 36946 ft 562 kts 91°
2026-05-04 15:34 42.91654 -51.36338 36946 ft 561 kts 91°
2026-05-04 15:35 42.92706 -51.20549 36949 ft 559 kts 91°
2026-05-04 15:36 42.93738 -51.04719 36949 ft 559 kts 91°
2026-05-04 15:36 42.94413 -50.94158 36950 ft 559 kts 91°
2026-05-04 15:37 42.95076 -50.83662 36949 ft 558 kts 91°
2026-05-04 15:37 42.95733 -50.73120 36949 ft 557 kts 91°
2026-05-04 15:38 42.96377 -50.62590 36959 ft 557 kts 91°
2026-05-04 15:38 42.97012 -50.52045 36951 ft 557 kts 92°
2026-05-04 15:39 42.97639 -50.41497 36949 ft 557 kts 92°
2026-05-04 15:40 42.98556 -50.25762 36957 ft 556 kts 92°
2026-05-04 15:40 42.99157 -50.15248 36949 ft 555 kts 92°
2026-05-04 15:41 42.99747 -50.04720 36955 ft 556 kts 92°
2026-05-04 15:41 43.00290 -49.94190 36959 ft 555 kts 93°
2026-05-04 15:42 43.00732 -49.83736 36953 ft 554 kts 93°
2026-05-04 15:42 43.01154 -49.73244 36958 ft 552 kts 93°
2026-05-04 15:43 43.01573 -49.62774 36954 ft 552 kts 93°
2026-05-04 15:43 43.01989 -49.52304 36949 ft 552 kts 93°
2026-05-04 15:44 43.02394 -49.41906 36955 ft 552 kts 93°
2026-05-04 15:44 43.02794 -49.31443 36952 ft 550 kts 93°
2026-05-04 15:45 43.03183 -49.21018 36954 ft 549 kts 93°
2026-05-04 15:45 43.03559 -49.10608 36958 ft 549 kts 93°
2026-05-04 15:46 43.03924 -49.00265 36960 ft 549 kts 93°
2026-05-04 15:46 43.04283 -48.89854 36960 ft 549 kts 93°
2026-05-04 15:47 43.04632 -48.79430 36957 ft 548 kts 93°
2026-05-04 15:47 43.04972 -48.69018 36911 ft 548 kts 94°
2026-05-04 15:48 43.05300 -48.58670 36958 ft 549 kts 93°
2026-05-04 15:48 43.05779 -48.43014 36963 ft 549 kts 93°
2026-05-04 15:49 43.06086 -48.32586 36956 ft 548 kts 93°
2026-05-04 15:49 43.06382 -48.22260 36959 ft 546 kts 94°
2026-05-04 15:50 43.06668 -48.11885 36957 ft 546 kts 93°
2026-05-04 15:50 43.06945 -48.01504 36959 ft 546 kts 93°
2026-05-04 15:51 43.07213 -47.91114 36957 ft 546 kts 93°
2026-05-04 15:51 43.07470 -47.80805 36957 ft 545 kts 93°
2026-05-04 15:52 43.07720 -47.70456 36960 ft 544 kts 94°
2026-05-04 15:52 43.07958 -47.60106 36967 ft 546 kts 93°
2026-05-04 15:53 43.08190 -47.49734 36966 ft 546 kts 93°
2026-05-04 15:53 43.08407 -47.39427 36959 ft 545 kts 93°
2026-05-04 15:54 43.08619 -47.29063 36957 ft 543 kts 93°
2026-05-04 15:54 43.08822 -47.18753 36962 ft 542 kts 94°
2026-05-04 15:55 43.09012 -47.08450 36953 ft 543 kts 93°
2026-05-04 15:55 43.09194 -46.98120 36966 ft 543 kts 93°
2026-05-04 15:56 43.09367 -46.87858 36954 ft 543 kts 93°
2026-05-04 15:56 43.09532 -46.77534 36967 ft 541 kts 94°
2026-05-04 15:57 43.09687 -46.67260 36971 ft 540 kts 94°
2026-05-04 15:57 43.09831 -46.56981 36972 ft 541 kts 93°
2026-05-04 15:58 43.09966 -46.46762 36972 ft 541 kts 93°
2026-05-04 15:58 43.10093 -46.36464 36973 ft 541 kts 93°
2026-05-04 15:59 43.10211 -46.26189 36991 ft 539 kts 93°
2026-05-04 15:59 43.10320 -46.15951 36991 ft 538 kts 93°
2026-05-04 16:00 43.10417 -46.05784 36994 ft 538 kts 94°
2026-05-04 16:00 43.10506 -45.95555 37005 ft 538 kts 94°
2026-05-04 16:01 43.10587 -45.85326 36985 ft 538 kts 94°
2026-05-04 16:01 43.10659 -45.75124 37012 ft 533 kts 94°
2026-05-04 16:02 43.10722 -45.65011 36994 ft 531 kts 94°
2026-05-04 16:03 43.10795 -45.49926 37024 ft 531 kts 94°
2026-05-04 16:03 43.10834 -45.39816 37031 ft 531 kts 94°
2026-05-04 16:04 43.10865 -45.29712 37032 ft 530 kts 94°
2026-05-04 16:04 43.10895 -45.14699 37020 ft 527 kts 93°
2026-05-04 16:05 43.10903 -45.04679 37056 ft 526 kts 93°
2026-05-04 16:06 43.10899 -44.89671 37059 ft 526 kts 94°
2026-05-04 16:07 43.10863 -44.69735 37067 ft 526 kts 93°
2026-05-04 16:08 43.10791 -44.49661 37074 ft 530 kts 93°
2026-05-04 16:09 43.10655 -44.24500 37097 ft 531 kts 93°
2026-05-04 16:10 43.10503 -44.04291 37101 ft 531 kts 92°
2026-05-04 16:11 43.10319 -43.84159 37116 ft 531 kts 92°
2026-05-04 16:12 43.09973 -43.53874 37121 ft 529 kts 92°
2026-05-04 16:13 43.09701 -43.33871 37142 ft 528 kts 92°
2026-05-04 16:14 43.09394 -43.13857 37147 ft 525 kts 92°
2026-05-04 16:16 43.08963 -42.88977 37153 ft 524 kts 92°
2026-05-04 16:17 43.08480 -42.64162 37171 ft 522 kts 92°
2026-05-04 16:18 43.08055 -42.44300 37173 ft 522 kts 91°
2026-05-04 16:19 43.07477 -42.19557 37183 ft 520 kts 91°
2026-05-04 16:20 43.06847 -41.94875 37193 ft 519 kts 91°
2026-05-04 16:22 43.06168 -41.70327 37208 ft 517 kts 91°
2026-05-04 16:23 43.05287 -41.40970 37222 ft 516 kts 91°
2026-05-04 16:25 43.04329 -41.11592 37223 ft 515 kts 91°
2026-05-04 16:26 43.03121 -40.77411 37234 ft 515 kts 91°
2026-05-04 16:28 43.02197 -40.53048 37250 ft 515 kts 91°
2026-05-04 16:29 43.00816 -40.18933 37250 ft 515 kts 91°
2026-05-04 16:31 42.99886 -39.94522 37269 ft 514 kts 88°
2026-05-04 16:32 42.99739 -39.65326 37268 ft 513 kts 88°
2026-05-04 16:33 42.99543 -39.45854 37283 ft 511 kts 87°
2026-05-04 16:34 42.99374 -39.31361 37278 ft 511 kts 87°
2026-05-04 16:35 42.98985 -39.02448 37286 ft 508 kts 87°
2026-05-04 16:36 42.98763 -38.88023 37289 ft 505 kts 87°
2026-05-04 16:37 42.98525 -38.73652 37288 ft 505 kts 87°
2026-05-04 16:38 42.98181 -38.54543 37292 ft 505 kts 88°
2026-05-04 16:39 42.97703 -38.30593 37295 ft 506 kts 88°
2026-05-04 16:40 42.97285 -38.11370 37302 ft 509 kts 88°
2026-05-04 16:41 42.96713 -37.87308 37307 ft 506 kts 88°
2026-05-04 16:43 42.96098 -37.63452 37314 ft 503 kts 88°
2026-05-04 16:43 42.95705 -37.49131 37317 ft 503 kts 88°
2026-05-04 16:45 42.94868 -37.20645 37322 ft 500 kts 87°
2026-05-04 16:46 42.94123 -36.96995 37333 ft 500 kts 87°
2026-05-04 16:47 42.93489 -36.78096 37333 ft 497 kts 86°
2026-05-04 16:48 42.92832 -36.59396 37332 ft 495 kts 86°
2026-05-04 16:49 42.92144 -36.40678 37339 ft 492 kts 86°
2026-05-04 16:50 42.91431 -36.22099 37340 ft 491 kts 86°
2026-05-04 16:51 42.90878 -36.08180 37348 ft 490 kts 86°
2026-05-04 16:52 42.90116 -35.89679 37345 ft 491 kts 85°
2026-05-04 16:53 42.89523 -35.75744 37345 ft 491 kts 86°
2026-05-04 16:54 42.88703 -35.57151 37362 ft 491 kts 85°
2026-05-04 16:55 42.87421 -35.29288 37359 ft 494 kts 86°
2026-05-04 16:56 42.86292 -35.06028 37358 ft 490 kts 85°
2026-05-04 16:57 42.85598 -34.92144 37359 ft 489 kts 85°
2026-05-04 16:58 42.84649 -34.73627 37374 ft 490 kts 85°
2026-05-04 17:00 42.83167 -34.45862 37372 ft 492 kts 85°
2026-05-04 17:01 42.81876 -34.22692 37374 ft 492 kts 85°
2026-05-04 17:02 42.80807 -34.04112 37381 ft 492 kts 85°
2026-05-04 17:03 42.79986 -33.90176 37384 ft 492 kts 86°
2026-05-04 17:03 42.79151 -33.76301 37384 ft 492 kts 86°
2026-05-04 17:04 42.78007 -33.57726 37391 ft 492 kts 86°
2026-05-04 17:05 42.76838 -33.39247 37388 ft 491 kts 86°
2026-05-04 17:06 42.75940 -33.25348 37406 ft 492 kts 86°
2026-05-04 17:07 42.75231 -33.14611 37388 ft 489 kts 86°
2026-05-04 17:07 42.74414 -33.02353 37391 ft 488 kts 86°
2026-05-04 17:08 42.73478 -32.88574 37395 ft 487 kts 86°
2026-05-04 17:09 42.72954 -32.80946 37432 ft 488 kts 86°
2026-05-04 17:09 42.72315 -32.71769 37395 ft 487 kts 86°
2026-05-04 17:10 42.70693 -32.48926 37401 ft 487 kts 87°
2026-05-04 17:11 42.70029 -32.39771 37400 ft 487 kts 87°
2026-05-04 17:12 42.69021 -32.26045 37403 ft 487 kts 88°
2026-05-04 17:13 42.67309 -32.03233 37403 ft 487 kts 88°
2026-05-04 17:14 42.65903 -31.84944 37409 ft 487 kts 90°
2026-05-04 17:15 42.64834 -31.71295 37404 ft 487 kts 90°
2026-05-04 17:16 42.63376 -31.53019 37410 ft 487 kts 90°
2026-05-04 17:17 42.61896 -31.34809 37413 ft 487 kts 91°
2026-05-04 17:18 42.60378 -31.16538 37409 ft 487 kts 91°
2026-05-04 17:19 42.58839 -30.98344 37408 ft 487 kts 92°
2026-05-04 17:20 42.57265 -30.80104 37417 ft 487 kts 93°
2026-05-04 17:20 42.56066 -30.66430 37410 ft 487 kts 93°
2026-05-04 17:21 42.54448 -30.48259 37414 ft 487 kts 93°
2026-05-04 17:22 42.53625 -30.39152 37411 ft 487 kts 93°
2026-05-04 17:23 42.51963 -30.21003 37415 ft 487 kts 93°
2026-05-04 17:24 42.50694 -30.07353 37412 ft 487 kts 94°
2026-05-04 17:25 42.48896 -29.89176 37411 ft 487 kts 95°
2026-05-04 17:26 42.46969 -29.71091 37408 ft 486 kts 95°
2026-05-04 17:27 42.44543 -29.48495 37410 ft 486 kts 95°
2026-05-04 17:28 42.42565 -29.30380 37405 ft 486 kts 95°
2026-05-04 17:29 42.39553 -29.03303 37404 ft 485 kts 96°
2026-05-04 17:31 42.36996 -28.80762 37398 ft 485 kts 96°
2026-05-04 17:32 42.34401 -28.58306 37404 ft 484 kts 96°
2026-05-04 17:33 42.34157 -28.56211 37400 ft 484 kts 96°
2026-05-04 17:51 42.33937 -28.54328 37434 ft 484 kts 97°
2026-05-04 17:51 42.32886 -28.45384 37404 ft 474 kts 96°
2026-05-04 17:52 42.31863 -28.36745 37403 ft 467 kts 96°
2026-05-04 17:52 42.30836 -28.28091 37395 ft 467 kts 96°
2026-05-04 17:53 42.29800 -28.19426 37398 ft 467 kts 97°
2026-05-04 17:53 42.28759 -28.10784 37395 ft 466 kts 97°
2026-05-04 17:54 42.27718 -28.02204 37395 ft 466 kts 97°
2026-05-04 17:54 42.26664 -27.93566 37395 ft 466 kts 97°
2026-05-04 17:55 42.25603 -27.84926 37392 ft 466 kts 97°
2026-05-04 17:55 42.24535 -27.76295 37397 ft 467 kts 97°
2026-05-04 17:56 42.23467 -27.67716 37393 ft 466 kts 97°
2026-05-04 17:56 42.22387 -27.59090 37392 ft 466 kts 97°
2026-05-04 17:57 42.21301 -27.50467 37393 ft 466 kts 98°
2026-05-04 17:57 42.20206 -27.41839 37390 ft 466 kts 98°
2026-05-04 17:58 42.19114 -27.33279 37397 ft 466 kts 98°
2026-05-04 17:58 42.18008 -27.24664 37391 ft 466 kts 98°
2026-05-04 17:59 42.16895 -27.16052 37386 ft 466 kts 98°